Sheldon, IA

8:08 PM CDT on March 27, 2017 (GMT -0500)
Sheldon Municipal

Weather History for KSHL - March, 2013

Change the Weather History Date:

Monday, March 18, 2013

  Actual Average Record
Temperature  
Mean Temperature 24 °F -  
Max Temperature 33 °F 43 °F 82 °F (2012)
Min Temperature 15 °F 25 °F -2 °F (1965)
Degree Days  
Heating Degree Days 41    
Moisture  
Dew Point 18 °F    
Average Humidity 81    
Maximum Humidity 100    
Minimum Humidity 63    
Precipitation  
Precipitation 0.03 in - - ()
Sea Level Pressure  
Sea Level Pressure 29.79 in    
Wind  
Wind Speed 25 mph (WNW)    
Max Wind Speed 33 mph    
Max Gust Speed 44 mph    
Visibility 8 miles    
Events Rain , Snow    
Averages and records for this station are not official NWS values.
T = Trace of Precipitation, MM = Missing Value Source: NWS Daily Summary

Daily Weather History Graph

Daily Weather History Graph

Search for Another Location

Airport or City:

Trip Planner

Search our weather history database for the weather conditions in past years. The results will help you decide how hot, cold, wet, or windy it might be!

Date:

Astronomy

Mar. 18, 2013 Rise Set
Actual Time 7:29 AM CDT 7:33 PM CDT
Civil Twilight 7:01 AM CDT 8:02 PM CDT
Nautical Twilight 6:28 AM CDT 8:35 PM CDT
Astronomical Twilight 5:54 AM CDT 9:09 PM CDT
Moon 11:20 AM CDT (3/18) 1:42 AM CDT (3/18)
Length of Visible Light 13h 00m
Length of Day
12h 03m
Waxing Crescent, 41% of the Moon is Illuminated
Mar 18
Waxing Crescent
Mar 19
First Quarter
Mar 27
Full
Apr 2
Last Quarter
Apr 10
New

Hourly Weather History & Observations

Time (CDT) Temp. Windchill Dew Point Humidity Pressure Visibility Wind Dir Wind Speed Gust Speed Precip Events Conditions
12:15 AM 32.0 °F 17.2 °F 32.0 °F 100% 29.66 in 3.0 mi SSE 32.2 mph 40.3 mph N/A Rain Light Rain
12:35 AM 32.0 °F 17.6 °F 32.0 °F 100% 29.65 in 4.0 mi SSE 29.9 mph 38.0 mph N/A Rain Light Rain
12:55 AM 32.0 °F 17.6 °F 32.0 °F 100% 29.65 in 3.0 mi SSE 29.9 mph 40.3 mph N/A   Overcast
1:15 AM 32.0 °F 19.2 °F 32.0 °F 100% 29.66 in 5.0 mi SSE 23.0 mph 34.5 mph N/A Rain Light Rain
1:35 AM 32.0 °F 20.1 °F 32.0 °F 100% 29.67 in 6.0 mi SSE 19.6 mph 27.6 mph N/A Rain Light Rain
1:55 AM 32.0 °F 20.1 °F 32.0 °F 100% 29.68 in 7.0 mi South 19.6 mph 27.6 mph N/A   Overcast
2:15 AM 32.0 °F 20.8 °F 32.0 °F 100% 29.68 in 4.0 mi South 17.3 mph 24.2 mph N/A Rain Light Rain
2:35 AM 33.8 °F 22.8 °F 33.8 °F 100% 29.68 in 5.0 mi South 18.4 mph - N/A   Overcast
2:55 AM 33.8 °F 22.5 °F 33.8 °F 100% 29.67 in 3.0 mi South 19.6 mph 27.6 mph 0.01 in   Overcast
3:15 AM 33.8 °F 22.2 °F 33.8 °F 100% 29.67 in 2.5 mi South 20.7 mph 26.5 mph N/A Rain Light Rain
3:35 AM 33.8 °F 22.5 °F 33.8 °F 100% 29.66 in 2.0 mi South 19.6 mph 27.6 mph N/A   Overcast
3:55 AM 33.8 °F 21.9 °F 33.8 °F 100% 29.65 in 2.5 mi SSW 21.9 mph - 0.01 in   Light Drizzle
4:15 AM 33.8 °F 22.2 °F 33.8 °F 100% 29.64 in 2.5 mi SSW 20.7 mph 29.9 mph N/A   Light Drizzle
4:35 AM 33.8 °F 22.5 °F 33.8 °F 100% 29.64 in 2.0 mi SSW 19.6 mph - N/A Rain Light Rain
4:55 AM 32.0 °F 19.2 °F 32.0 °F 100% 29.65 in 4.0 mi West 23.0 mph 34.5 mph 0.01 in   Overcast
5:15 AM 32.0 °F 19.5 °F 32.0 °F 100% 29.65 in 7.0 mi West 21.9 mph 29.9 mph N/A   Overcast
5:35 AM 32.0 °F 19.2 °F 30.2 °F 93% 29.65 in 6.0 mi WNW 23.0 mph 33.4 mph N/A   Light Drizzle
5:55 AM 30.2 °F 17.1 °F 28.4 °F 93% 29.65 in 10.0 mi WNW 21.9 mph 31.1 mph N/A   Overcast
6:15 AM 30.2 °F 17.1 °F 26.6 °F 86% 29.66 in 10.0 mi WNW 21.9 mph 33.4 mph N/A   Overcast
6:35 AM 26.6 °F 10.6 °F 23.0 °F 86% 29.68 in 10.0 mi West 28.8 mph 38.0 mph N/A   Overcast
6:55 AM 26.6 °F 12.0 °F 21.2 °F 80% 29.69 in 10.0 mi WNW 23.0 mph 32.2 mph N/A   Overcast
7:15 AM 26.6 °F 12.7 °F 23.0 °F 86% 29.70 in 10.0 mi NW 20.7 mph 27.6 mph N/A   Overcast
7:35 AM 24.8 °F 8.7 °F 19.4 °F 80% 29.70 in 9.0 mi WNW 26.5 mph 33.4 mph N/A   Overcast
7:55 AM 23.0 °F 7.6 °F 17.6 °F 80% 29.71 in 10.0 mi WNW 21.9 mph 34.5 mph N/A   Overcast
8:15 AM 23.0 °F 8.0 °F 17.6 °F 80% 29.72 in 9.0 mi NW 20.7 mph 32.2 mph N/A   Overcast
8:35 AM 21.2 °F 3.5 °F 15.8 °F 80% 29.73 in 8.0 mi NW 27.6 mph - N/A Snow Light Snow
8:55 AM 21.2 °F 5.2 °F 15.8 °F 80% 29.74 in 4.0 mi NW 21.9 mph 28.8 mph N/A Snow Light Snow
9:15 AM 19.4 °F 2.1 °F 15.8 °F 86% 29.75 in 1.8 mi WNW 24.2 mph 32.2 mph N/A Snow Light Snow
9:35 AM 19.4 °F 1.4 °F 14.0 °F 80% 29.75 in 3.0 mi WNW 26.5 mph 32.2 mph N/A Snow Light Snow
9:55 AM 19.4 °F 1.1 °F 12.2 °F 74% 29.76 in 8.0 mi WNW 27.6 mph 34.5 mph N/A Rain Light Freezing Rain
10:15 AM 19.4 °F 0.5 °F 12.2 °F 74% 29.77 in 8.0 mi NW 29.9 mph 35.7 mph N/A Snow Light Snow
10:35 AM 19.4 °F 0.5 °F 12.2 °F 74% 29.77 in 7.0 mi WNW 29.9 mph 38.0 mph N/A Snow Light Snow
10:55 AM 19.4 °F 1.8 °F 14.0 °F 80% 29.78 in 6.0 mi WNW 25.3 mph 35.7 mph N/A Rain Light Freezing Rain
11:15 AM 17.6 °F -1.0 °F 10.4 °F 73% 29.79 in 8.0 mi NW 26.5 mph 33.4 mph N/A Snow Light Snow
11:35 AM 17.6 °F -0.3 °F 10.4 °F 73% 29.80 in 3.0 mi WNW 24.2 mph 36.8 mph N/A Snow Light Snow
11:55 AM 17.6 °F -1.6 °F 10.4 °F 73% 29.80 in 5.0 mi WNW 28.8 mph - N/A Snow Light Snow
12:15 PM 17.6 °F -0.6 °F 10.4 °F 73% 29.81 in 6.0 mi WNW 25.3 mph 36.8 mph N/A Rain Light Freezing Rain
12:35 PM 17.6 °F -1.0 °F 8.6 °F 68% 29.81 in 9.0 mi WNW 26.5 mph 36.8 mph N/A Snow Light Snow
12:55 PM 17.6 °F 0.1 °F 8.6 °F 68% 29.82 in 9.0 mi WNW 23.0 mph 39.1 mph N/A Rain Light Freezing Rain
1:15 PM 17.6 °F -1.6 °F 10.4 °F 73% 29.82 in 9.0 mi WNW 28.8 mph 38.0 mph N/A   Overcast
1:35 PM 17.6 °F -2.2 °F 10.4 °F 73% 29.82 in 9.0 mi WNW 31.1 mph 39.1 mph N/A Rain Light Freezing Rain
1:55 PM 19.4 °F 2.1 °F 10.4 °F 68% 29.82 in 9.0 mi WNW 24.2 mph 33.4 mph N/A Rain Light Freezing Rain
2:15 PM 19.4 °F 1.1 °F 10.4 °F 68% 29.82 in 10.0 mi WNW 27.6 mph 34.5 mph N/A   Overcast
2:35 PM 19.4 °F 1.1 °F 10.4 °F 68% 29.82 in 10.0 mi WNW 27.6 mph 36.8 mph N/A   Mostly Cloudy
2:55 PM 19.4 °F 0.8 °F 12.2 °F 74% 29.82 in 10.0 mi WNW 28.8 mph 38.0 mph N/A Snow Light Snow
3:15 PM 19.4 °F 0.2 °F 12.2 °F 74% 29.82 in 10.0 mi WNW 31.1 mph 42.6 mph N/A Snow Light Snow
3:35 PM 19.4 °F 0.8 °F 12.2 °F 74% 29.83 in 7.0 mi WNW 28.8 mph 41.4 mph N/A Snow Light Snow
3:55 PM 19.4 °F 0.2 °F 12.2 °F 74% 29.84 in 8.0 mi NW 31.1 mph 41.4 mph N/A Snow Light Snow
4:15 PM 21.2 °F 3.3 °F 12.2 °F 68% 29.84 in 9.0 mi WNW 28.8 mph 40.3 mph N/A Rain Light Freezing Rain
4:35 PM 21.2 °F 3.9 °F 14.0 °F 74% 29.85 in 8.0 mi NW 26.5 mph 34.5 mph N/A Snow Light Snow
4:55 PM 21.2 °F 3.3 °F 10.4 °F 63% 29.85 in 10.0 mi WNW 28.8 mph 36.8 mph N/A Rain Light Freezing Rain
5:15 PM 21.2 °F 3.3 °F 14.0 °F 74% 29.86 in 10.0 mi WNW 28.8 mph 40.3 mph N/A   Overcast
5:35 PM 21.2 °F 2.2 °F 12.2 °F 68% 29.86 in 10.0 mi NW 33.4 mph 43.7 mph N/A Snow Light Snow
5:55 PM 21.2 °F 3.0 °F 14.0 °F 74% 29.87 in 8.0 mi NW 29.9 mph 38.0 mph N/A Snow Light Snow
6:15 PM 21.2 °F 3.0 °F 12.2 °F 68% 29.88 in 10.0 mi NW 29.9 mph 39.1 mph N/A Rain Light Freezing Rain
6:35 PM 21.2 °F 4.2 °F 12.2 °F 68% 29.88 in 10.0 mi NW 25.3 mph 36.8 mph N/A Snow Light Snow
6:55 PM 19.4 °F 0.8 °F 12.2 °F 74% 29.89 in 10.0 mi NW 28.8 mph 38.0 mph N/A Snow Light Snow
7:15 PM 19.4 °F 0.8 °F 12.2 °F 74% 29.90 in 10.0 mi NW 28.8 mph 36.8 mph N/A   Light Freezing Rain
7:35 PM 19.4 °F 2.1 °F 12.2 °F 74% 29.91 in 9.0 mi NW 24.2 mph 32.2 mph N/A Rain Light Freezing Rain
7:55 PM 19.4 °F 2.5 °F 12.2 °F 74% 29.92 in 9.0 mi NW 23.0 mph 33.4 mph N/A Rain Light Freezing Rain
8:15 PM 17.6 °F -0.3 °F 12.2 °F 79% 29.93 in 10.0 mi NW 24.2 mph - N/A   Overcast
8:35 PM 17.6 °F -1.3 °F 10.4 °F 73% 29.94 in 10.0 mi NW 27.6 mph 34.5 mph N/A   Mostly Cloudy
8:55 PM 17.6 °F 1.3 °F 10.4 °F 73% 29.95 in 10.0 mi NW 19.6 mph 32.2 mph N/A   Overcast
9:15 PM 17.6 °F 2.2 °F 10.4 °F 73% 29.97 in 10.0 mi NW 17.3 mph 27.6 mph N/A   Mostly Cloudy
9:35 PM 17.6 °F 0.9 °F 10.4 °F 73% 29.97 in 10.0 mi NW 20.7 mph 27.6 mph N/A   Mostly Cloudy
9:55 PM 17.6 °F 0.5 °F 10.4 °F 73% 29.97 in 10.0 mi NW 21.9 mph 27.6 mph N/A   Scattered Clouds
10:15 PM 15.8 °F -0.6 °F 10.4 °F 79% 29.98 in 10.0 mi NW 18.4 mph 27.6 mph N/A   Clear
10:55 PM 15.8 °F -0.2 °F 10.4 °F 79% 29.98 in 10.0 mi NW 17.3 mph 25.3 mph N/A   Clear
11:15 PM 15.8 °F -0.6 °F 8.6 °F 73% 29.97 in 10.0 mi NW 18.4 mph 26.5 mph N/A   Clear
11:35 PM 15.8 °F -0.2 °F 6.8 °F 68% 29.97 in 10.0 mi NW 17.3 mph 25.3 mph N/A   Clear
11:55 PM 15.8 °F -0.2 °F 6.8 °F 68% 29.96 in 10.0 mi NNW 17.3 mph - N/A   Clear